• In Czech Republic
  • List of Countries
  • For 7 days
  • Water Temperature
  • Satellite Maps
  • Weather Map
  • Weather Widgets
  • user-avatar
    Login

    Hourly Weather Christchurch

    Today, 22 November, Wednesday

    Time Temperature Precipitation Wind Pressure Humidity
    00:00 +12°C° 0 mm 9 mps 754 mmHg 87%
    01:00 +12°C° 0 mm 9 mps 753 mmHg 86%
    02:00 +12°C° 0 mm 10 mps 753 mmHg 86%
    03:00 +12°C° 0 mm 10 mps 752 mmHg 85%
    04:00 +12°C° 0 mm 10 mps 752 mmHg 85%
    05:00 +12°C° 0 mm 11 mps 751 mmHg 85%
    06:00 +12°C° 0 mm 11 mps 751 mmHg 86%
    07:00 +12°C° 0 mm 11 mps 751 mmHg 84%
    08:00 +13°C° 0 mm 12 mps 750 mmHg 82%
    09:00 +13°C° 0 mm 12 mps 750 mmHg 80%
    10:00 +13°C° 0 mm 12 mps 749 mmHg 78%
    11:00 +13°C° 0 mm 12 mps 749 mmHg 76%
    12:00 +14°C° 0 mm 12 mps 748 mmHg 75%
    13:00 +14°C° 0 mm 12 mps 747 mmHg 73%
    14:00 +14°C° 0 mm 12 mps 746 mmHg 70%
    15:00 +14°C° 0 mm 12 mps 745 mmHg 68%
    16:00 +14°C° 0.1 mm 13 mps 745 mmHg 69%
    17:00 +14°C° 0.1 mm 14 mps 744 mmHg 70%
    18:00 +14°C° 0.1 mm 15 mps 743 mmHg 72%
    19:00 +14°C° 0.6 mm 15 mps 743 mmHg 76%
    20:00 +13°C° 0.6 mm 16 mps 743 mmHg 79%
    21:00 +13°C° 0.6 mm 16 mps 742 mmHg 83%
    22:00 +13°C° 1.4 mm 16 mps 741 mmHg 84%
    23:00 +13°C° 1.4 mm 15 mps 741 mmHg 85%

    Tomorrow, 23 November, Thursday

    Time Temperature Precipitation Wind Pressure Humidity
    00:00 +13°C° 1.4 mm 15 mps 740 mmHg 86%
    01:00 +13°C° 0.7 mm 14 mps 740 mmHg 86%
    02:00 +13°C° 0.7 mm 14 mps 740 mmHg 86%
    03:00 +13°C° 0.7 mm 13 mps 740 mmHg 87%
    04:00 +12°C° 0.2 mm 12 mps 741 mmHg 86%
    05:00 +12°C° 0.2 mm 12 mps 742 mmHg 85%
    06:00 +12°C° 0.2 mm 12 mps 743 mmHg 85%
    07:00 +9°C° 0 mm 11 mps 745 mmHg 82%
    08:00 +8°C° 0 mm 10 mps 746 mmHg 79%
    09:00 +6°C° 0 mm 10 mps 748 mmHg 77%
    10:00 +7°C° 0 mm 10 mps 749 mmHg 72%
    11:00 +8°C° 0 mm 10 mps 750 mmHg 68%
    12:00 +9°C° 0 mm 10 mps 751 mmHg 63%
    13:00 +10°C° 0 mm 9 mps 752 mmHg 64%
    14:00 +9°C° 0 mm 8 mps 753 mmHg 66%
    15:00 +9°C° 0 mm 7 mps 753 mmHg 67%
    16:00 +9°C° 0.1 mm 6 mps 753 mmHg 70%
    17:00 +8°C° 0.1 mm 5 mps 753 mmHg 73%
    18:00 +8°C° 0.1 mm 4 mps 753 mmHg 76%
    19:00 +7°C° 1.6 mm 5 mps 753 mmHg 82%
    20:00 +7°C° 1.6 mm 6 mps 752 mmHg 87%
    21:00 +5°C° 1.6 mm 7 mps 751 mmHg 93%
    22:00 +5°C° 0.8 mm 7 mps 751 mmHg 92%
    23:00 +5°C° 0.8 mm 8 mps 751 mmHg 91%

    Day after tomorrow, 24 November, Friday

    Time Temperature Precipitation Wind Pressure Humidity
    00:00 +5°C° 0.8 mm 8 mps 751 mmHg 90%
    01:00 +4°C° 0 mm 7 mps 752 mmHg 90%
    02:00 +3°C° 0 mm 6 mps 753 mmHg 90%
    03:00 +4°C° 0 mm 4 mps 753 mmHg 90%
    04:00 +3°C° 0 mm 4 mps 754 mmHg 90%
    05:00 +3°C° 0 mm 3 mps 754 mmHg 90%
    06:00 +3°C° 0 mm 3 mps 755 mmHg 91%
    07:00 +4°C° 0 mm 2 mps 755 mmHg 90%
    08:00 +4°C° 0 mm 2 mps 756 mmHg 88%
    09:00 +6°C° 0 mm 1 mps 756 mmHg 87%
    10:00 +7°C° 0 mm 1 mps 756 mmHg 82%
    11:00 +8°C° 0 mm 1 mps 757 mmHg 77%
    12:00 +9°C° 0 mm 1 mps 757 mmHg 72%
    13:00 +8°C° 0 mm 2 mps 757 mmHg 75%
    14:00 +8°C° 0 mm 2 mps 756 mmHg 77%
    15:00 +8°C° 0 mm 2 mps 756 mmHg 80%
    16:00 +7°C° 0.3 mm 2 mps 756 mmHg 83%
    17:00 +7°C° 0.3 mm 2 mps 756 mmHg 85%
    18:00 +6°C° 0.3 mm 2 mps 756 mmHg 88%
    19:00 +5°C° 0.5 mm 3 mps 756 mmHg 89%
    20:00 +5°C° 0.5 mm 3 mps 756 mmHg 90%
    21:00 +5°C° 0.5 mm 3 mps 756 mmHg 92%
    22:00 +3°C° 0.4 mm 5 mps 756 mmHg 89%
    23:00 +3°C° 0.4 mm 6 mps 756 mmHg 87%

    25 November, Saturday

    Time Temperature Precipitation Wind Pressure Humidity
    00:00 +2°C° 0.4 mm 7 mps 756 mmHg 85%
    01:00 +1°C° 0.1 mm 8 mps 757 mmHg 83%
    02:00 +1°C° 0.1 mm 8 mps 757 mmHg 81%
    03:00 0°C° 0.1 mm 8 mps 757 mmHg 80%
    04:00 0°C° 0 mm 8 mps 758 mmHg 79%
    05:00 0°C° 0 mm 7 mps 758 mmHg 79%
    06:00 -1°C° 0 mm 7 mps 759 mmHg 79%
    07:00 -1°C° 0 mm 7 mps 760 mmHg 79%
    08:00 0°C° 0 mm 7 mps 761 mmHg 79%
    09:00 0°C° 0 mm 7 mps 762 mmHg 78%
    10:00 +1°C° 0 mm 8 mps 762 mmHg 73%
    11:00 +2°C° 0 mm 8 mps 762 mmHg 67%
    12:00 +5°C° 0 mm 9 mps 763 mmHg 62%
    13:00 +4°C° 0 mm 8 mps 763 mmHg 64%
    14:00 +4°C° 0 mm 8 mps 763 mmHg 66%
    15:00 +4°C° 0 mm 8 mps 763 mmHg 68%
    16:00 +2°C° 0 mm 8 mps 764 mmHg 70%
    17:00 +2°C° 0 mm 7 mps 764 mmHg 72%
    18:00 0°C° 0 mm 7 mps 764 mmHg 74%
    19:00 0°C° 0 mm 7 mps 765 mmHg 74%
    20:00 -1°C° 0 mm 7 mps 765 mmHg 75%
    21:00 -1°C° 0 mm 7 mps 765 mmHg 76%
    22:00 -1°C° 0 mm 7 mps 766 mmHg 76%
    23:00 -1°C° 0 mm 7 mps 766 mmHg 77%

    26 November, Sunday

    Time Temperature Precipitation Wind Pressure Humidity
    00:00 -1°C° 0 mm 7 mps 766 mmHg 77%
    01:00 -1°C° 0 mm 7 mps 766 mmHg 78%
    02:00 -1°C° 0 mm 7 mps 766 mmHg 80%
    03:00 -1°C° 0 mm 7 mps 766 mmHg 81%
    04:00 -1°C° 0 mm 7 mps 766 mmHg 83%
    05:00 -1°C° 0 mm 7 mps 766 mmHg 84%
    06:00 -1°C° 0 mm 7 mps 766 mmHg 86%
    07:00 0°C° 0 mm 7 mps 766 mmHg 84%
    08:00 0°C° 0 mm 7 mps 767 mmHg 83%
    09:00 0°C° 0 mm 7 mps 767 mmHg 81%
    10:00 +2°C° 0 mm 8 mps 767 mmHg 76%
    11:00 +4°C° 0 mm 8 mps 767 mmHg 70%
    12:00 +5°C° 0 mm 9 mps 767 mmHg 65%
    13:00 +5°C° 0 mm 8 mps 767 mmHg 68%
    14:00 +5°C° 0 mm 8 mps 767 mmHg 71%
    15:00 +4°C° 0 mm 7 mps 767 mmHg 74%
    16:00 +3°C° 0 mm 7 mps 768 mmHg 78%
    17:00 +3°C° 0 mm 7 mps 768 mmHg 82%
    18:00 +2°C° 0 mm 6 mps 768 mmHg 86%
    19:00 +1°C° 0 mm 6 mps 769 mmHg 86%
    20:00 +1°C° 0 mm 6 mps 769 mmHg 86%
    21:00 +1°C° 0 mm 6 mps 769 mmHg 86%
    22:00 +1°C° 0 mm 5 mps 769 mmHg 87%
    23:00 +1°C° 0 mm 5 mps 769 mmHg 87%

    27 November, Monday

    Time Temperature Precipitation Wind Pressure Humidity
    00:00 +1°C° 0 mm 5 mps 768 mmHg 87%
    01:00 +1°C° 0 mm 5 mps 768 mmHg 86%
    02:00 +1°C° 0 mm 5 mps 768 mmHg 86%
    03:00 +1°C° 0 mm 5 mps 767 mmHg 86%
    04:00 +2°C° 0 mm 6 mps 767 mmHg 84%
    05:00 +3°C° 0 mm 6 mps 766 mmHg 82%
    06:00 +4°C° 0 mm 7 mps 765 mmHg 80%
    07:00 +4°C° 0.1 mm 7 mps 765 mmHg 79%
    08:00 +5°C° 0.1 mm 8 mps 764 mmHg 78%
    09:00 +5°C° 0.1 mm 8 mps 763 mmHg 77%
    10:00 +6°C° 0.3 mm 9 mps 762 mmHg 78%
    11:00 +6°C° 0.3 mm 11 mps 761 mmHg 78%
    12:00 +7°C° 0.3 mm 12 mps 760 mmHg 78%
    13:00 +7°C° 0.8 mm 12 mps 759 mmHg 81%
    14:00 +5°C° 0.8 mm 12 mps 757 mmHg 83%
    15:00 +5°C° 0.8 mm 12 mps 756 mmHg 86%
    16:00 +5°C° 1.5 mm 12 mps 754 mmHg 87%
    17:00 +5°C° 1.5 mm 13 mps 753 mmHg 88%
    18:00 +5°C° 1.5 mm 13 mps 752 mmHg 90%
    19:00 +4°C° 1.4 mm 11 mps 751 mmHg 90%
    20:00 +3°C° 1.4 mm 10 mps 751 mmHg 91%
    21:00 +3°C° 1.4 mm 9 mps 751 mmHg 92%
    22:00 +2°C° 0.3 mm 9 mps 751 mmHg 92%
    23:00 +2°C° 0.3 mm 10 mps 751 mmHg 91%
    Show more